Weather History for Jamestown, NY

Change the Weather History Date:

Friday, October 5, 2012

  Actual Average Record
Temperature  
Mean Temperature 58 °F -  
Max Temperature 64 °F 63 °F 80 °F (2007)
Min Temperature 51 °F 39 °F 22 °F (1987)
Degree Days  
Heating Degree Days 8    
Growing Degree Days 8 (Base 50)    
Moisture  
Dew Point 53 °F    
Average Humidity 85    
Maximum Humidity 94    
Minimum Humidity 72    
Precipitation  
Precipitation 0.05 in - - ()
Sea Level Pressure  
Sea Level Pressure 30.03 in    
Wind  
Wind Speed 8 mph (SW)    
Max Wind Speed 14 mph    
Max Gust Speed 18 mph    
Visibility 9 miles    
Events      
Averages and records for this station are not official NWS values.
T = Trace of Precipitation, MM = Missing Value Source: NWS Daily Summary

Daily Weather History Graph

Daily Weather History Graph

Search for Another Location

Airport:

Trip Planner

Search our weather history database for the weather conditions in past years. The results will help you decide how hot, cold, wet, or windy it might be!

Date:

Astronomy

Oct. 05, 2012 Rise Set
Actual Time 7:18 AM EDT 6:50 PM EDT
Civil Twilight 6:50 AM EDT 7:18 PM EDT
Nautical Twilight 6:18 AM EDT 7:51 PM EDT
Astronomical Twilight 5:45 AM EDT 8:23 PM EDT
Moon 10:08 PM EDT (10/5) 12:30 PM EDT (10/5)
Length of Visible Light 12h 27m
Length of Day
11h 31m
Waning Gibbous, 74% of the Moon is Illuminated
Oct 5
Waning Gibbous
Oct 8
Last Quarter
Oct 15
New
Oct 21
First Quarter
Oct 29
Full

Hourly Weather History & Observations

Time (EDT) Temp. Dew Point Humidity Pressure Visibility Wind Dir Wind Speed Gust Speed Precip Events Conditions
12:15 AM 55.4 °F 50.0 °F 82% 30.11 in 10.0 mi South 5.8 mph - N/A   Clear
12:35 AM 55.4 °F 50.0 °F 82% 30.10 in 10.0 mi South 5.8 mph - N/A   Clear
12:55 AM 55.4 °F 50.0 °F 82% 30.10 in 10.0 mi SSW 6.9 mph - N/A   Clear
1:15 AM 55.4 °F 50.0 °F 82% 30.10 in 10.0 mi South 5.8 mph - N/A   Clear
1:35 AM 53.6 °F 50.0 °F 88% 30.09 in 10.0 mi South 6.9 mph - N/A   Clear
1:55 AM 53.6 °F 50.0 °F 88% 30.09 in 10.0 mi South 5.8 mph - N/A   Clear
2:15 AM 53.6 °F 50.0 °F 88% 30.09 in 10.0 mi South 6.9 mph - N/A   Clear
2:35 AM 53.6 °F 50.0 °F 88% 30.09 in 10.0 mi South 8.1 mph - N/A   Clear
2:55 AM 53.6 °F 50.0 °F 88% 30.09 in 10.0 mi South 6.9 mph - N/A   Clear
3:15 AM 53.6 °F 50.0 °F 88% 30.09 in 10.0 mi South 8.1 mph - N/A   Partly Cloudy
3:35 AM 53.6 °F 50.0 °F 88% 30.08 in 10.0 mi South 6.9 mph - N/A   Mostly Cloudy
3:55 AM 53.6 °F 50.0 °F 88% 30.08 in 10.0 mi South 6.9 mph - N/A   Overcast
4:15 AM 53.6 °F 50.0 °F 88% 30.08 in 10.0 mi South 6.9 mph - N/A   Mostly Cloudy
4:35 AM 55.4 °F 51.8 °F 88% 30.07 in 10.0 mi SSW 6.9 mph - N/A   Mostly Cloudy
4:55 AM 55.4 °F 51.8 °F 88% 30.07 in 10.0 mi South 5.8 mph - N/A   Mostly Cloudy
5:15 AM 55.4 °F 51.8 °F 88% 30.07 in 10.0 mi South 6.9 mph - N/A   Overcast
5:35 AM 53.6 °F 50.0 °F 88% 30.07 in 10.0 mi South 5.8 mph - N/A   Scattered Clouds
5:55 AM 53.6 °F 50.0 °F 88% 30.07 in 10.0 mi South 5.8 mph - N/A   Clear
6:15 AM 55.4 °F 51.8 °F 88% 30.07 in 10.0 mi SSW 6.9 mph - N/A   Partly Cloudy
6:35 AM 55.4 °F 51.8 °F 88% 30.07 in 10.0 mi South 6.9 mph - N/A   Mostly Cloudy
6:55 AM 55.4 °F 51.8 °F 88% 30.07 in 10.0 mi SSW 9.2 mph - N/A   Overcast
7:15 AM 57.2 °F 51.8 °F 82% 30.07 in 10.0 mi SSW 6.9 mph - N/A   Overcast
7:35 AM 57.2 °F 51.8 °F 82% 30.07 in 10.0 mi SW 8.1 mph - N/A   Overcast
7:55 AM 57.2 °F 51.8 °F 82% 30.07 in 10.0 mi SSW 6.9 mph - N/A   Overcast
8:15 AM 57.2 °F 51.8 °F 82% 30.07 in 10.0 mi SSW 8.1 mph - N/A   Overcast
8:35 AM 57.2 °F 51.8 °F 82% 30.07 in 10.0 mi SW 4.6 mph - N/A   Mostly Cloudy
8:55 AM 57.2 °F 53.6 °F 88% 30.07 in 10.0 mi SW 6.9 mph - N/A   Overcast
9:15 AM 59.0 °F 53.6 °F 82% 30.07 in 10.0 mi SSW 6.9 mph - N/A   Overcast
9:35 AM 59.0 °F 53.6 °F 82% 30.07 in 10.0 mi SW 6.9 mph - N/A   Overcast
9:55 AM 59.0 °F 53.6 °F 82% 30.07 in 10.0 mi SSW 6.9 mph - N/A   Overcast
10:15 AM 60.8 °F 53.6 °F 77% 30.06 in 10.0 mi SSW 10.4 mph - N/A   Overcast
10:35 AM 60.8 °F 53.6 °F 77% 30.06 in 10.0 mi SSW 11.5 mph 18.4 mph N/A   Overcast
10:55 AM 60.8 °F 53.6 °F 77% 30.06 in 10.0 mi SSW 8.1 mph 18.4 mph N/A   Overcast
11:15 AM 62.6 °F 55.4 °F 77% 30.05 in 10.0 mi SW 11.5 mph 16.1 mph N/A   Mostly Cloudy
11:35 AM 62.6 °F 55.4 °F 77% 30.05 in 10.0 mi SSW 10.4 mph 17.3 mph N/A   Mostly Cloudy
11:55 AM 62.6 °F 55.4 °F 77% 30.04 in 10.0 mi SSW 8.1 mph - N/A   Overcast
12:35 PM 64.4 °F 55.4 °F 73% 30.04 in 10.0 mi SW 13.8 mph 18.4 mph N/A   Overcast
1:15 PM 62.6 °F 55.4 °F 77% 30.04 in 10.0 mi SW 10.4 mph - N/A   Overcast
1:35 PM 62.6 °F 55.4 °F 77% 30.03 in 10.0 mi SSW 12.7 mph 18.4 mph N/A   Overcast
1:55 PM 64.4 °F 55.4 °F 73% 30.02 in 10.0 mi SSW 10.4 mph - N/A   Mostly Cloudy
2:35 PM 62.6 °F 55.4 °F 77% 30.02 in 10.0 mi WSW 10.4 mph 17.3 mph N/A   Overcast
2:55 PM 62.6 °F 55.4 °F 77% 30.02 in 10.0 mi WSW 10.4 mph - N/A   Overcast
3:15 PM 62.6 °F 53.6 °F 72% 30.02 in 10.0 mi SW 13.8 mph - N/A   Overcast
3:35 PM 62.6 °F 55.4 °F 77% 30.01 in 10.0 mi WSW 10.4 mph - N/A   Overcast
3:55 PM 60.8 °F 55.4 °F 82% 30.01 in 10.0 mi WSW 10.4 mph - N/A   Overcast
4:15 PM 60.8 °F 55.4 °F 82% 30.01 in 6.0 mi WSW 9.2 mph - 0.02 in   Overcast
4:35 PM 59.0 °F 55.4 °F 88% 30.01 in 4.0 mi SW 10.4 mph - 0.02 in   Overcast
4:55 PM 59.0 °F 55.4 °F 88% 30.00 in 5.0 mi SSW 8.1 mph - 0.04 in   Overcast
5:15 PM 59.0 °F 55.4 °F 88% 29.99 in 7.0 mi SW 9.2 mph - N/A   Overcast
5:35 PM 59.0 °F 55.4 °F 88% 29.98 in 9.0 mi SSW 9.2 mph - N/A   Mostly Cloudy
5:55 PM 59.0 °F 55.4 °F 88% 29.98 in 9.0 mi SW 10.4 mph - N/A   Overcast
6:15 PM 57.2 °F 55.4 °F 94% 29.97 in 10.0 mi SSW 8.1 mph - N/A   Overcast
6:35 PM 57.2 °F 55.4 °F 94% 29.97 in 10.0 mi SW 10.4 mph - N/A   Overcast
7:15 PM 57.2 °F 55.4 °F 94% 29.97 in 10.0 mi SW 9.2 mph - N/A   Overcast
7:35 PM 57.2 °F 55.4 °F 94% 29.96 in 10.0 mi SSW 4.6 mph - N/A   Overcast
7:55 PM 57.2 °F 55.4 °F 94% 29.95 in 10.0 mi SSW 5.8 mph - N/A   Overcast
8:15 PM 57.2 °F 53.6 °F 88% 29.95 in 10.0 mi SW 6.9 mph - N/A   Overcast
8:35 PM 57.2 °F 55.4 °F 94% 29.95 in 10.0 mi South 4.6 mph - N/A   Overcast
8:55 PM 57.2 °F 55.4 °F 94% 29.94 in 10.0 mi WSW 4.6 mph - N/A   Overcast
9:15 PM 57.2 °F 55.4 °F 94% 29.95 in 8.0 mi SW 5.8 mph - N/A   Overcast
9:35 PM 57.2 °F 55.4 °F 94% 29.94 in 8.0 mi West 11.5 mph - N/A   Overcast
9:55 PM 53.6 °F 51.8 °F 94% 29.94 in 3.0 mi West 9.2 mph - N/A   Overcast
10:15 PM 53.6 °F 51.8 °F 94% 29.93 in 5.0 mi NW 9.2 mph - N/A   Overcast
10:35 PM 51.8 °F 50.0 °F 94% 29.92 in 3.0 mi West 10.4 mph - N/A   Overcast
10:55 PM 51.8 °F 48.2 °F 88% 29.91 in 7.0 mi West 8.1 mph - N/A   Overcast
11:35 PM 51.8 °F 48.2 °F 88% 29.90 in 7.0 mi West 5.8 mph - 0.01 in   Overcast
11:55 PM 51.8 °F 48.2 °F 88% 29.91 in 10.0 mi West 8.1 mph - 0.01 in   Overcast